Regional Weather Roundup
Issued by NWS

Home | Current Version | Previous Version | Graphics & Text | Print | Product List | Glossary On
Versions: 1 2 3 4 5 6 7 8 9 10 11 12 13 14 15 16 17 18 19 20 21 22 23 24 25 26 27 28 29 30 31 32 33 34 35 36 37 38 39 40 41 42 43 44 45 46 47 48 49 50
000
ASUS44 KMEG 232000
RWRTN
TENNESSEE HOURLY STATE WEATHER ROUNDUP
NATIONAL WEATHER SERVICE MEMPHIS TN
300 PM CDT TUE AUG 23 2016

TNZ002-004-019-021-049-052-054-088>092-232100-
WEST TENNESSEE

CITY           SKY/WX    TMP DP  RH WIND       PRES   REMARKS
MEMPHIS INTL   PTSUNNY   90  74  59 SW8       30.17F HX  99
NWS MEMPHIS      N/A     89 N/A N/A MISG        N/A
JACKSON        PTSUNNY   82  78  88 E8        30.21F THUNDER HX  91
DYERSBURG      PTSUNNY  N/A N/A N/A MISG        N/A
UNION CITY     CLOUDY    75  75 100 S5        30.19F
PARIS          PTSUNNY   79  73  83 SW6       30.22S
$$

TNZ008-025-027-028-033-062-065-066-232100-
NORTH MIDDLE TENNESSEE

CITY           SKY/WX    TMP DP  RH WIND       PRES   REMARKS
NASHVILLE      PTSUNNY   86  65  49 CALM      30.22F
CLARKSVILLE    SUNNY     83  68  60 S6        30.21F
COOKEVILLE     SUNNY     86  70  58 S3        30.24F HX  90
CROSSVILLE     MOSUNNY   81  62  52 W8        30.29F
$$

TNZ061-075-076-078-094-096-097-232100-
SOUTH MIDDLE TENNESSEE

CITY           SKY/WX    TMP DP  RH WIND       PRES   REMARKS
TULLAHOMA      MOSUNNY   86  63  45 CALM      30.24F
WINCHESTER     MOSUNNY   86  66  51 CALM      30.23F
MCMINNVILLE    MOSUNNY   86  68  54 VRB6      30.24F
COLUMBIA       CLOUDY    86  75  70 S5        30.21F HX  95
SHELBYVILLE    CLOUDY    88  70  55 SW5       30.24S HX  92
$$

TNZ017-018-042-046-047-232100-
NORTHEAST TENNESSEE

CITY           SKY/WX    TMP DP  RH WIND       PRES   REMARKS
TRI CITIES     PTSUNNY   86  58  38 SW7       30.27F
$$

TNZ012-013-036-069-073-074-232100-
CENTRAL EAST TENNESSEE

CITY           SKY/WX    TMP DP  RH WIND       PRES   REMARKS
KNOXVILLE      PTSUNNY   85  63  47 W9        30.22F
OAK RIDGE      PTSUNNY   86  61  42 W7        30.25F
GATLINBURG       N/A     88  66  48 VRB3      30.22F HX  90
$$

TNZ083-085-099-232100-
SOUTHEAST TENNESSEE

CITY           SKY/WX    TMP DP  RH WIND       PRES   REMARKS
CHATTANOOGA    PTSUNNY   91  61  36 VRB3      30.21F HX  91
$$

SKY/WX REPORTED AS FAIR MEANS FEW OR NO CLOUDS BELOW
12 THOUSAND FEET.





USA.gov is the U.S. government's official web portal to all federal, state and local government web resources and services.